Time,TemperatureF,DewpointF,PressureIn,WindDirection,WindDirectionDegrees,WindSpeedMPH,WindSpeedGustMPH,Humidity,HourlyPrecipIn,Conditions,Clouds,dailyrainin,SolarRadiationWatts/m^2,SoftwareType,DateUTC
2013-02-16 00:01:00,-5.0,-10.0,-100.00,South,169,1.0,2.0,78,0.00,,,0.00,0.000000,,2013-02-16 09:01:00,
2013-02-16 00:11:00,-5.0,-10.0,-100.00,South,169,1.0,2.0,78,0.00,,,0.00,0.000000,,2013-02-16 09:11:00,
2013-02-16 00:21:00,-5.0,-10.0,-100.00,South,169,1.0,2.0,78,0.00,,,0.00,0.000000,,2013-02-16 09:21:00,
2013-02-16 00:52:00,-5.0,-10.0,-100.00,ESE,110,0.0,1.0,78,0.00,,,-99.99,0.000000,,2013-02-16 09:52:00,
2013-02-16 01:01:00,-5.0,-10.0,-100.00,ESE,110,0.0,1.0,78,0.00,,,-99.99,0.000000,,2013-02-16 10:01:00,
2013-02-16 01:11:00,-5.0,-10.0,-100.00,ESE,110,0.0,1.0,78,0.00,,,-99.99,0.000000,,2013-02-16 10:11:00,
2013-02-16 01:21:00,-5.0,-10.0,-100.00,ESE,110,0.0,1.0,78,0.00,,,-99.99,0.000000,,2013-02-16 10:21:00,
2013-02-16 01:52:00,-8.0,-13.0,-100.00,East,91,0.0,0.0,78,0.00,,,0.00,0.000000,,2013-02-16 10:52:00,
2013-02-16 02:02:00,-8.0,-13.0,-100.00,East,91,0.0,0.0,78,0.00,,,0.00,0.000000,,2013-02-16 11:02:00,
2013-02-16 02:11:00,-8.0,-13.0,-100.00,East,91,0.0,0.0,78,0.00,,,0.00,0.000000,,2013-02-16 11:11:00,
2013-02-16 02:22:00,-8.0,-13.0,-100.00,East,91,0.0,0.0,78,0.00,,,0.00,0.000000,,2013-02-16 11:22:00,
2013-02-16 02:52:00,-8.0,-14.0,-100.00,East,91,0.0,0.0,74,0.00,,,-99.99,0.000000,,2013-02-16 11:52:00,
2013-02-16 03:01:00,-8.0,-14.0,-100.00,East,91,0.0,0.0,74,0.00,,,-99.99,0.000000,,2013-02-16 12:01:00,
2013-02-16 03:12:00,-8.0,-14.0,-100.00,East,91,0.0,0.0,74,0.00,,,-99.99,0.000000,,2013-02-16 12:12:00,
2013-02-16 03:22:00,-8.0,-14.0,-100.00,East,91,0.0,0.0,74,0.00,,,-99.99,0.000000,,2013-02-16 12:22:00,
2013-02-16 03:52:00,-8.0,-14.0,-100.00,East,90,0.0,0.0,74,0.00,,,0.00,0.000000,,2013-02-16 12:52:00,
2013-02-16 04:01:00,-8.0,-14.0,-100.00,East,90,0.0,0.0,74,0.00,,,0.00,0.000000,,2013-02-16 13:01:00,
2013-02-16 04:11:00,-8.0,-14.0,-100.00,East,90,0.0,0.0,74,0.00,,,0.00,0.000000,,2013-02-16 13:11:00,
2013-02-16 04:21:00,-8.0,-14.0,-100.00,East,90,0.0,0.0,74,0.00,,,0.00,0.000000,,2013-02-16 13:21:00,
2013-02-16 05:52:00,-13.0,-19.0,-100.00,East,89,0.0,0.0,73,-99.99,,,0.00,0.000000,,2013-02-16 14:52:00,
2013-02-16 06:01:00,-13.0,-19.0,-100.00,East,89,0.0,0.0,73,-99.99,,,0.00,0.000000,,2013-02-16 15:01:00,
2013-02-16 06:11:00,-13.0,-19.0,-100.00,East,89,0.0,0.0,73,-99.99,,,0.00,0.000000,,2013-02-16 15:11:00,
2013-02-16 06:21:00,-13.0,-19.0,-100.00,East,89,0.0,0.0,73,-99.99,,,0.00,0.000000,,2013-02-16 15:21:00,
2013-02-16 06:52:00,-13.0,-19.0,-100.00,East,98,0.0,0.0,73,0.00,,,0.00,0.000000,,2013-02-16 15:52:00,
2013-02-16 07:01:00,-13.0,-19.0,-100.00,East,98,0.0,0.0,73,0.00,,,0.00,0.000000,,2013-02-16 16:01:00,
2013-02-16 07:11:00,-13.0,-19.0,-100.00,East,98,0.0,0.0,73,0.00,,,0.00,0.000000,,2013-02-16 16:11:00,
2013-02-16 07:21:00,-13.0,-19.0,-100.00,East,98,0.0,0.0,73,0.00,,,0.00,0.000000,,2013-02-16 16:21:00,
2013-02-16 07:52:00,-14.0,-20.0,-100.00,East,87,0.0,0.0,72,0.00,,,-99.99,0.000000,,2013-02-16 16:52:00,
2013-02-16 08:01:00,-14.0,-20.0,-100.00,East,87,0.0,0.0,72,0.00,,,-99.99,0.000000,,2013-02-16 17:01:00,
2013-02-16 08:11:00,-14.0,-20.0,-100.00,East,87,0.0,0.0,72,0.00,,,-99.99,0.000000,,2013-02-16 17:11:00,
2013-02-16 08:21:00,-14.0,-20.0,-100.00,East,87,0.0,0.0,72,0.00,,,-99.99,0.000000,,2013-02-16 17:21:00,
2013-02-16 08:52:00,-20.0,-26.0,-100.00,East,87,0.0,0.0,72,0.00,,,0.00,1.000000,,2013-02-16 17:52:00,
2013-02-16 09:02:00,-20.0,-26.0,-100.00,East,87,0.0,0.0,72,0.00,,,0.00,1.000000,,2013-02-16 18:02:00,
2013-02-16 09:11:00,-20.0,-26.0,-100.00,East,87,0.0,0.0,72,0.00,,,0.00,1.000000,,2013-02-16 18:11:00,
2013-02-16 09:21:00,-20.0,-26.0,-100.00,East,87,0.0,0.0,72,0.00,,,0.00,1.000000,,2013-02-16 18:21:00,
2013-02-16 09:52:00,-17.0,-24.0,-100.00,ESE,112,0.0,0.0,68,0.00,,,0.00,10.000000,,2013-02-16 18:52:00,
2013-02-16 10:02:00,-17.0,-24.0,-100.00,ESE,112,0.0,0.0,68,0.00,,,0.00,10.000000,,2013-02-16 19:02:00,
2013-02-16 10:11:00,-17.0,-24.0,-100.00,ESE,112,0.0,0.0,68,0.00,,,0.00,10.000000,,2013-02-16 19:11:00,
2013-02-16 10:21:00,-17.0,-24.0,-100.00,ESE,112,0.0,0.0,68,0.00,,,0.00,10.000000,,2013-02-16 19:21:00,
2013-02-16 10:52:00,-15.0,-23.0,-100.00,East,90,0.0,0.0,67,0.00,,,0.00,34.000000,,2013-02-16 19:52:00,
2013-02-16 11:01:00,-15.0,-23.0,-100.00,East,90,0.0,0.0,67,0.00,,,0.00,34.000000,,2013-02-16 20:01:00,
2013-02-16 11:11:00,-15.0,-23.0,-100.00,East,90,0.0,0.0,67,0.00,,,0.00,34.000000,,2013-02-16 20:11:00,
2013-02-16 11:21:00,-15.0,-23.0,-100.00,East,90,0.0,0.0,67,0.00,,,0.00,34.000000,,2013-02-16 20:21:00,
2013-02-16 11:52:00,-8.0,-14.0,-100.00,NNE,29,0.0,0.0,73,0.00,,,0.00,75.000000,,2013-02-16 20:52:00,
2013-02-16 12:02:00,-8.0,-14.0,-100.00,NNE,29,0.0,0.0,73,0.00,,,0.00,75.000000,,2013-02-16 21:02:00,
2013-02-16 12:11:00,-8.0,-14.0,-100.00,NNE,29,0.0,0.0,73,0.00,,,0.00,75.000000,,2013-02-16 21:11:00,
2013-02-16 12:21:00,-8.0,-14.0,-100.00,NNE,29,0.0,0.0,73,0.00,,,0.00,75.000000,,2013-02-16 21:21:00,
2013-02-16 12:52:00,-5.0,-11.0,-100.00,NNE,22,0.0,0.0,73,0.00,,,0.00,104.000000,,2013-02-16 21:52:00,
2013-02-16 13:01:00,-5.0,-11.0,-100.00,NNE,22,0.0,0.0,73,0.00,,,0.00,104.000000,,2013-02-16 22:01:00,
2013-02-16 13:11:00,-5.0,-11.0,-100.00,NNE,22,0.0,0.0,73,0.00,,,0.00,104.000000,,2013-02-16 22:11:00,
2013-02-16 13:21:00,-5.0,-11.0,-100.00,NNE,22,0.0,0.0,73,0.00,,,0.00,104.000000,,2013-02-16 22:21:00,
2013-02-16 13:52:00,-2.0,-9.0,-100.00,WNW,294,0.0,0.0,71,0.00,,,0.00,137.000000,,2013-02-16 22:52:00,
2013-02-16 14:02:00,-2.0,-9.0,-100.00,WNW,294,0.0,0.0,71,0.00,,,0.00,137.000000,,2013-02-16 23:02:00,
2013-02-16 14:11:00,-2.0,-9.0,-100.00,WNW,294,0.0,0.0,71,0.00,,,0.00,137.000000,,2013-02-16 23:11:00,
2013-02-16 14:21:00,-2.0,-9.0,-100.00,WNW,294,0.0,0.0,71,0.00,,,0.00,137.000000,,2013-02-16 23:21:00,
2013-02-16 14:52:00,2.0,-5.0,-100.00,North,1,2.0,4.0,71,0.00,,,0.00,155.000000,,2013-02-16 23:52:00,
2013-02-16 15:02:00,2.0,-5.0,-100.00,North,1,2.0,4.0,71,0.00,,,0.00,155.000000,,2013-02-17 00:02:00,
2013-02-16 15:11:00,2.0,-5.0,-100.00,North,1,2.0,4.0,71,0.00,,,0.00,155.000000,,2013-02-17 00:11:00,
2013-02-16 15:21:00,2.0,-5.0,-100.00,North,1,2.0,4.0,71,0.00,,,0.00,155.000000,,2013-02-17 00:21:00,
2013-02-16 15:52:00,3.0,-6.0,-100.00,WNW,285,4.0,4.0,65,0.00,,,0.00,172.000000,,2013-02-17 00:52:00,
2013-02-16 16:01:00,3.0,-6.0,-100.00,WNW,285,4.0,4.0,65,0.00,,,0.00,172.000000,,2013-02-17 01:01:00,
2013-02-16 16:11:00,3.0,-6.0,-100.00,WNW,285,4.0,4.0,65,0.00,,,0.00,172.000000,,2013-02-17 01:11:00,
2013-02-16 16:21:00,3.0,-6.0,-100.00,WNW,285,4.0,4.0,65,0.00,,,0.00,172.000000,,2013-02-17 01:21:00,
2013-02-16 16:52:00,4.0,-5.0,-100.00,NNW,330,3.0,5.0,64,0.00,,,0.00,100.000000,,2013-02-17 01:52:00,
2013-02-16 17:01:00,4.0,-5.0,-100.00,NNW,330,3.0,5.0,64,0.00,,,0.00,100.000000,,2013-02-17 02:01:00,
2013-02-16 17:11:00,4.0,-5.0,-100.00,NNW,330,3.0,5.0,64,0.00,,,0.00,100.000000,,2013-02-17 02:11:00,
2013-02-16 17:21:00,4.0,-5.0,-100.00,NNW,330,3.0,5.0,64,0.00,,,0.00,100.000000,,2013-02-17 02:21:00,
2013-02-16 17:52:00,-1.0,-10.0,-100.00,NNW,340,0.0,3.0,64,0.00,,,0.00,25.000000,,2013-02-17 02:52:00,
2013-02-16 18:01:00,-1.0,-10.0,-100.00,NNW,340,0.0,3.0,64,0.00,,,0.00,25.000000,,2013-02-17 03:01:00,
2013-02-16 18:11:00,-1.0,-10.0,-100.00,NNW,340,0.0,3.0,64,0.00,,,0.00,25.000000,,2013-02-17 03:11:00,
2013-02-16 18:21:00,-1.0,-10.0,-100.00,NNW,340,0.0,3.0,64,0.00,,,0.00,25.000000,,2013-02-17 03:21:00,
2013-02-16 18:52:00,-8.0,-13.0,-100.00,North,4,0.0,0.0,79,0.00,,,0.00,2.000000,,2013-02-17 03:52:00,
2013-02-16 19:01:00,-8.0,-13.0,-100.00,North,4,0.0,0.0,79,0.00,,,0.00,2.000000,,2013-02-17 04:01:00,
2013-02-16 19:11:00,-8.0,-13.0,-100.00,North,4,0.0,0.0,79,0.00,,,0.00,2.000000,,2013-02-17 04:11:00,
2013-02-16 19:21:00,-8.0,-13.0,-100.00,North,4,0.0,0.0,79,0.00,,,0.00,2.000000,,2013-02-17 04:21:00,
2013-02-16 19:52:00,-11.0,-16.0,-100.00,NE,40,0.0,3.0,76,0.00,,,0.00,0.000000,,2013-02-17 04:52:00,
2013-02-16 20:01:00,-11.0,-16.0,-100.00,NE,40,0.0,3.0,76,0.00,,,0.00,0.000000,,2013-02-17 05:01:00,
2013-02-16 20:11:00,-11.0,-16.0,-100.00,NE,40,0.0,3.0,76,0.00,,,0.00,0.000000,,2013-02-17 05:11:00,
2013-02-16 20:22:00,-11.0,-16.0,-100.00,NE,40,0.0,3.0,76,0.00,,,0.00,0.000000,,2013-02-17 05:22:00,
2013-02-16 20:52:00,-15.0,-21.0,-100.00,NNE,32,0.0,0.0,72,0.00,,,0.00,0.000000,,2013-02-17 05:52:00,
2013-02-16 21:02:00,-15.0,-21.0,-100.00,NNE,32,0.0,0.0,72,0.00,,,0.00,0.000000,,2013-02-17 06:02:00,
2013-02-16 21:11:00,-15.0,-21.0,-100.00,NNE,32,0.0,0.0,72,0.00,,,0.00,0.000000,,2013-02-17 06:11:00,
2013-02-16 21:21:00,-15.0,-21.0,-100.00,NNE,32,0.0,0.0,72,0.00,,,0.00,0.000000,,2013-02-17 06:21:00,
2013-02-16 21:52:00,-16.0,-23.0,-100.00,NNE,25,0.0,0.0,71,0.00,,,0.00,0.000000,,2013-02-17 06:52:00,
2013-02-16 22:01:00,-16.0,-23.0,-100.00,NNE,25,0.0,0.0,71,0.00,,,0.00,0.000000,,2013-02-17 07:01:00,
2013-02-16 22:11:00,-16.0,-23.0,-100.00,NNE,25,0.0,0.0,71,0.00,,,0.00,0.000000,,2013-02-17 07:11:00,
2013-02-16 22:21:00,-16.0,-23.0,-100.00,NNE,25,0.0,0.0,71,0.00,,,0.00,0.000000,,2013-02-17 07:21:00,
2013-02-16 22:52:00,-13.0,-19.0,-100.00,NE,37,0.0,0.0,73,0.00,,,0.00,0.000000,,2013-02-17 07:52:00,
2013-02-16 23:01:00,-13.0,-19.0,-100.00,NE,37,0.0,0.0,73,0.00,,,0.00,0.000000,,2013-02-17 08:01:00,
2013-02-16 23:11:00,-13.0,-19.0,-100.00,NE,37,0.0,0.0,73,0.00,,,0.00,0.000000,,2013-02-17 08:11:00,
2013-02-16 23:21:00,-13.0,-19.0,-100.00,NE,37,0.0,0.0,73,0.00,,,0.00,0.000000,,2013-02-17 08:21:00,
2013-02-16 23:52:00,-7.0,-12.0,-100.00,NE,48,0.0,0.0,77,0.00,,,0.00,0.000000,,2013-02-17 08:52:00,